This is the latest recevied weather packets stored in our database for station/object HK6REC-25. If no packets are shown the sender has not sent any weather packets the latest 10 day(s).
| Time | Temp. | Humidity | Pressure | Rain* | Wind** | Luminosity | Snow |
|---|---|---|---|---|---|---|---|
| 1778009686 | 20.56° C | 73% | 1009 hPa | 0 mm | - | - | - |
| 1778007885 | 20.56° C | 73% | 1010 hPa | 0 mm | - | - | - |
| 1778006084 | 21.67° C | 74% | 1010 hPa | 0 mm | - | - | - |
| 1778004283 | 21.11° C | 72% | 1011 hPa | 0 mm | - | - | - |
| 1778002482 | 22.22° C | 72% | 1011 hPa | 0 mm | - | - | - |
| 1778000681 | 21.67° C | 75% | 1013 hPa | 0 mm | - | - | - |
| 1777998880 | 21.67° C | 76% | 1012 hPa | 0 mm | - | - | - |
| 1777997079 | 22.22° C | 71% | 1014 hPa | 0 mm | - | - | - |
| 1777995278 | 23.33° C | 71% | 1013 hPa | 0 mm | - | - | - |
| 1777993477 | 20° C | 80% | 1014 hPa | 0 mm | - | - | - |
| 1777991676 | 17.22° C | 87% | 1014 hPa | 0 mm | - | - | - |
| 1777989875 | 18.33° C | 87% | 1015 hPa | 0 mm | - | - | - |
| 1777988074 | 16.67° C | 95% | 1015 hPa | 0 mm | - | - | - |
| 1777986273 | 17.78° C | 95% | 1015 hPa | 0 mm | - | - | - |
| 1777984472 | 19.44° C | 95% | 1015 hPa | 0 mm | - | - | - |
| 1777982671 | 14.44° C | 95% | 1015 hPa | 0 mm | - | - | - |
| 1777980870 | 12.22° C | 95% | 1015 hPa | 0 mm | - | - | - |
| 1777979069 | 13.33° C | 95% | 1015 hPa | 0 mm | - | - | - |
| 1777977268 | 12.78° C | 95% | 1014 hPa | 0 mm | - | - | - |
| 1777975467 | 13.89° C | 95% | 1014 hPa | 0 mm | - | - | - |
| 1777973666 | 12.78° C | 94% | 1014 hPa | 0 mm | - | - | - |
| 1777971864 | 13.89° C | 94% | 1014 hPa | 0 mm | - | - | - |
| 1777970063 | 12.78° C | 91% | 1014 hPa | 0 mm | - | - | - |
| 1777968262 | 13.89° C | 91% | 1014 hPa | 0 mm | - | - | - |
| 1777966461 | 15° C | 91% | 1013 hPa | 0 mm | - | - | - |
* Rain latest hour (hover to see other rain measurements)
** Current wind speed in m/s (hover to see current wind gust speed)